Regional Weather Roundup
Issued by NWS Grand Forks, ND

Home | Current Version | Previous Version | Text Only | Print | Product List | Glossary Off
Versions: 1 2 3 4 5 6 7 8 9 10 11 12 13 14 15 16 17 18 19 20 21 22 23 24 25 26 27 28 29 30 31 32 33 34 35 36 37 38 39 40 41 42 43 44 45 46 47 48 49 50

000
ASUS43 KFGF 261231
RWRFGF
PRAIRIE TO PINES  WEATHER ROUNDUP
NATIONAL WEATHER SERVICE EASTERN NORTH DAKOTA/GRAND FORKS ND
600 AM CST MON JAN 26 2015

 **SATELLITE DATA USED TO AUGMENT SKY COVER AT AUTOMATED STATIONS**
 *****  WEATHER ACROSS EASTERN NORTH DAKOTA  *****

CITY           SKY/WX    TMP DP  RH WIND       PRES   REMARKS
GRAND FORKS    CLEAR     33  28  81 W10       29.65R WCI  25
6HR MIN TEMP:  27; 6HR MAX TEMP:  36;

GRAND FRKS AFB CLEAR     37  30  75 NW15      29.66R
GRAND FRKS NWS   N/A     32 N/A N/A NW10        N/A  WCI  24
DEVILS LAKE    CLEAR     34  28  80 NW18      29.71R WCI  23
6HR MIN TEMP:  34; 6HR MAX TEMP:  39;

FARGO          MOCLDY    35  30  82 W15       29.67R
WAHPETON ARPT  PTSUNNY   32  30  93 NW10      29.69S WCI  24
$$

 ***** WEATHER ACROSS CENTRAL AND WESTERN NORTH DAKOTA  *****

CITY           SKY/WX    TMP DP  RH WIND       PRES   REMARKS
BISMARCK       PTCLDY    41  31  67 NW10      29.84R
6HR MIN TEMP:  34; 6HR MAX TEMP:  42;

MINOT          CLEAR     38  30  73 W18G28    29.80R
6HR MIN TEMP:  37; 6HR MAX TEMP:  40;

JAMESTOWN      CLEAR     37  31  78 NW17      29.73S
6HR MIN TEMP:  36; 6HR MAX TEMP:  39;

MINOT AFB      CLEAR     36  35  96 NW20      29.80R
GARRISON         N/A     38  32  79 NW18      29.83R
WILLISTON      CLOUDY    37  31  78 SW9       29.90S
6HR MIN TEMP:  36; 6HR MAX TEMP:  41;

DICKINSON      PTCLDY    35  30  82 W10       29.89R
6HR MIN TEMP:  35; 6HR MAX TEMP:  42;

HETTINGER      PTCLDY    34  30  85 W10       29.93R
6HR MIN TEMP:  33; 6HR MAX TEMP:  41;

$$

 *****  OTHER AIRPORT OBSERVATIONS IN OUR AREA  *****

CITY           SKY/WX    TMP DP  RH WIND       PRES   REMARKS
WALHALLA         N/A     37  34  87 NW15G24   29.65R
GRAFTON AIRPOR NOT AVBL
VALLEY CITY AR NOT AVBL
CANDO          FAIR      32  28  86 W17       29.72R WCI  21
CAVALIER APRT  FAIR      39  32  75 NW17      29.64R
GWINNER        SUNNY     39  36  87 NW18G24   29.74R
SHEYENNE NWR     N/A     37  32  82 NW7       29.95
ROLLA          FAIR      37  32  81 NW31G39   29.71R
 ***** THE ABOVE OBSERVATIONS ARE NON NWS ARE NOT QUALITY
       CONTROLLED AND MAY MIS-REPORT RAIN FOR SNOW...
$$

  *****  WEATHER ACROSS NORTHERN MINNESOTA  *****

CITY           SKY/WX    TMP DP  RH WIND       PRES   REMARKS
FLAG ISLAND    CLOUDY    28  27  93 W10       29.51S WCI  19
WARROAD        CLOUDY    32  28  86 W9        29.55R WCI  24
ROSEAU         CLOUDY    32  28  86 W9G16     29.56R WCI  24
HALLOCK        CLOUDY    37  32  81 NW18G24   29.61R
THF RVR FALLS  CLOUDY    32  28  86 W13       29.61S WCI  22
6HR MIN TEMP:  27; 6HR MAX TEMP:  32;

BAUDETTE       CLOUDY    30  26  85 VRB5      29.52S
6HR MIN TEMP:  23; 6HR MAX TEMP:  29; 6HR PCP: TRACE;

WASKISH        CLOUDY    30  28  93 SW7       29.56S WCI  23
CROOKSTON      MOCLDY    28  27  93 NW12      29.65R WCI  18
STEPHEN NDAWN    N/A     36  30  80 W15         N/A
GREENBUSH NDAW   N/A     32  28  86 W12         N/A  WCI  23
$$
  *****  WEATHER ACROSS CENTRAL AND WEST MINNESOTA  *****

CITY           SKY/WX    TMP DP  RH WIND       PRES   REMARKS
FOSSTON        CLOUDY    28  27  93 W6        29.62S WCI  22
BEMIDJI        MOCLDY    32  29  90 W10       29.58F WCI  23
PARK RAPIDS    CLOUDY    31  27  85 W8        29.61R WCI  23
6HR MIN TEMP:  25; 6HR MAX TEMP:  31;

ELBOW LAKE     FAIR      31  29  94 NW9       29.67S WCI  23
WADENA         PTCLDY    28  27  93 W6        29.63R WCI  22
DETROIT LAKES  MOCLDY    32  32 100 NW14G22   29.66R WCI  22
MOORHEAD       MOCLDY    36  34  93 NW13      29.69R
FERGUS FALLS   MOCLDY    27  27 100 NW9       29.70S WCI  17
MORRIS MN      PTCLDY    36  32  87 NW15      29.67S
STAPLES        CLOUDY    30  28  93 W7        29.63F WCI  23
$$
  *****  WEATHER ELSEWHERE ACROSS MINNESOTA  *****

CITY           SKY/WX    TMP DP  RH WIND       PRES   REMARKS
DULUTH         FRZ DRZL  21  17  84 S13       29.64F WCI   9
6HR MIN TEMP:  19; 6HR MAX TEMP:  20; 6HR PCP:  0.09;

INTRNTL FALLS  LGT SNOW  24  22  91 S6        29.55R FOG     WCI  17
6HR MIN TEMP:  21; 6HR MAX TEMP:  23; 6HR PCP:  0.13;

ELY            LGT SNOW  19  16  86 S7        29.60F WCI  10
CLOQUET        FLURRIES  21  18  86 S6        29.65F WCI  14
WHEATON        PTCLDY    34  30  86 W14       29.72R WCI  24
BRAINERD       CLOUDY    27  25  92 S8        29.64F WCI  19
6HR MIN TEMP:  24; 6HR MAX TEMP:  27; 6HR PCP: TRACE;

HIBBING        CLOUDY    22  19  89 S6        29.62F FOG     WCI  14
6HR MIN TEMP:  19; 6HR MAX TEMP:  22; 6HR PCP:  0.03;

ALEXANDRIA     PTCLDY    32  29  88 W10       29.65F WCI  24
6HR MIN TEMP:  26; 6HR MAX TEMP:  33; 6HR PCP: TRACE;

SAINT CLOUD    CLOUDY    28  26  92 S9        29.67F WCI  19
6HR MIN TEMP:  23; 6HR MAX TEMP:  28; 6HR PCP: TRACE;

MINNEAPOLIS    CLOUDY    27  23  85 SE10      29.74F WCI  17
6HR MIN TEMP:  22; 6HR MAX TEMP:  27; 6HR PCP: TRACE;

$$

  *****  WEATHER ACROSS SOUTH DAKOTA  *****

CITY           SKY/WX    TMP DP  RH WIND       PRES   REMARKS
SIOUX FALLS    MOCLDY    33  30  88 W3        29.79R
6HR MIN TEMP:  32; 6HR MAX TEMP:  33;

BROOKINGS      NOT AVBL
WATERTOWN      PTCLDY    34  30  85 W9        29.74F
6HR MIN TEMP:  30; 6HR MAX TEMP:  36;

HURON          CLEAR     35  32  88 NW12      29.82R
6HR MIN TEMP:  31; 6HR MAX TEMP:  36;

SISSETON         N/A     38  33  82 NW18      29.71R
ABERDEEN       CLEAR     35  30  82 NW8       29.80R
6HR MIN TEMP:  30; 6HR MAX TEMP:  37;

MITCHELL       CLEAR     37  32  82 W12       29.84R
PIERRE         CLEAR     38  33  82 W13       29.89R
6HR MIN TEMP:  32; 6HR MAX TEMP:  39;

MOBRIDGE       MOCLDY    38  34  85 NW8       29.84R
RAPID CITY     CLEAR     48  28  46 NW6       29.98S
6HR MIN TEMP:  45; 6HR MAX TEMP:  54;

$$

  *****  SOME WEATHER IN NEARBY STATES *****

CITY           SKY/WX    TMP DP  RH WIND       PRES   REMARKS
GLASGOW MT     CLEAR     32  29  88 NW7       29.95R
6HR MIN TEMP:  32; 6HR MAX TEMP:  39;

GREAT FALLS MT MOCLDY    54  27  35 SW22G30   30.03F
6HR MIN TEMP:  51; 6HR MAX TEMP:  55;

CHEYENNE WY    MOCLDY    47  23  38 NW13G22   30.20S
6HR MIN TEMP:  46; 6HR MAX TEMP:  49;

SCOTTSBLUFF NE PTCLDY    38  30  73 W7        30.12R
6HR MIN TEMP:  32; 6HR MAX TEMP:  40;

OMAHA NE       CLEAR     27  25  92 SE9       29.91F WCI  18
6HR MIN TEMP:  26; 6HR MAX TEMP:  31;

DES MOINES IA  CLOUDY    33  26  75 SW9       29.94F
6HR MIN TEMP:  32; 6HR MAX TEMP:  33;

DAVENPORT IA   CLOUDY    17  12  80 S3        29.97F
6HR MIN TEMP:   9; 6HR MAX TEMP:  17;

CHICAGO IL     MOCLDY    16  12  84 NW6       29.95F WCI   7
6HR MIN TEMP:  15; 6HR MAX TEMP:  24;

EAU CLAIRE WI  LGT SNOW  20  17  88 SE12      29.79F VSB 1   WCI   8
6HR MIN TEMP:  16; 6HR MAX TEMP:  21; 6HR PCP:  0.01;

LA CROSSE WI   CLOUDY    23  15  71 SE12      29.87F WCI  12
6HR MIN TEMP:  20; 6HR MAX TEMP:  23; 6HR PCP: TRACE;

$$

  *****  SOME NATIONAL WEATHER *****

CITY           SKY/WX    TMP DP  RH WIND       PRES   REMARKS
LA GUARDIA NY  FLURRIES  24  13  62 NE22      30.01S WCI   9
6HR MIN TEMP:  24; 6HR MAX TEMP:  28; 6HR PCP: TRACE;

RALEIGH NC     LGT RAIN  39  37  92 CALM      29.70R
6HR MIN TEMP:  38; 6HR MAX TEMP:  42; 6HR PCP:  0.01;

ATLANTA GA     CLOUDY    44  39  82 W14G21    29.77R
6HR MIN TEMP:  42; 6HR MAX TEMP:  46;

NEW ORLEANS LA CLEAR     50  34  54 N14       30.07R
6HR MIN TEMP:  47; 6HR MAX TEMP:  51;

OKLAHOMA CITY  CLEAR     30  24  78 SE3       30.13F
6HR MIN TEMP:  29; 6HR MAX TEMP:  39;

ALBUQUERQUE NM CLEAR     33  24  69 N13       30.35S WCI  24
6HR MIN TEMP:  30; 6HR MAX TEMP:  39;

SALT LAKE CITY CLEAR     31  28  89 SE8       30.42S WCI  23
6HR MIN TEMP:  30; 6HR MAX TEMP:  36;

LOS ANGELES CA CLOUDY    61  42  49 CALM      29.98F


USA.gov is the U.S. government's official web portal to all federal, state and local government web resources and services.